This is the latest recevied weather packets stored in our database for station/object EA1AHP-1. If no packets are shown the sender has not sent any weather packets the latest 10 day(s).
| Time | Temp. | Humidity | Pressure | Rain* | Wind** | Luminosity | Snow |
|---|---|---|---|---|---|---|---|
| 1777976802 | 13.89° C | 12% | 924 hPa | 0 mm | - | - | - |
| 1777975903 | 13.89° C | 12% | 924 hPa | 0 mm | - | - | - |
| 1777975003 | 13.33° C | 12% | 924 hPa | 0 mm | - | - | - |
| 1777974102 | 13.33° C | 12% | 924 hPa | 0 mm | - | - | - |
| 1777973202 | 12.22° C | 13% | 924 hPa | 0 mm | - | - | - |
| 1777972303 | 12.22° C | 13% | 924 hPa | 0 mm | - | - | - |
| 1777971402 | 12.22° C | 13% | 923 hPa | 0 mm | - | - | - |
| 1777970503 | 12.22° C | 13% | 923 hPa | 0 mm | - | - | - |
| 1777969603 | 11.67° C | 13% | 924 hPa | 0 mm | - | - | - |
| 1777968703 | 11.67° C | 16% | 924 hPa | 0 mm | - | - | - |
| 1777967802 | 11.11° C | 16% | 923 hPa | 0 mm | - | - | - |
| 1777966903 | 11.11° C | 16% | 923 hPa | 0 mm | - | - | - |
| 1777966002 | 11.11° C | 16% | 923 hPa | 0 mm | - | - | - |
| 1777965102 | 11.11° C | 16% | 923 hPa | 0 mm | - | - | - |
| 1777964202 | 11.11° C | 16% | 923 hPa | 0 mm | - | - | - |
| 1777963302 | 10.56° C | 16% | 923 hPa | 0 mm | - | - | - |
| 1777962402 | 10° C | 16% | 923 hPa | 0 mm | - | - | - |
| 1777961503 | 10° C | 16% | 923 hPa | 0 mm | - | - | - |
| 1777960603 | 9.44° C | 19% | 922 hPa | 0 mm | - | - | - |
| 1777959703 | 8.89° C | 19% | 922 hPa | 0 mm | - | - | - |
| 1777958803 | 8.33° C | 19% | 922 hPa | 0 mm | - | - | - |
| 1777957003 | 8.33° C | 19% | 922 hPa | 0 mm | - | - | - |
| 1777956103 | 8.89° C | 17% | 922 hPa | 0 mm | - | - | - |
| 1777955203 | 8.89° C | 19% | 922 hPa | 0 mm | - | - | - |
| 1777954303 | 8.89° C | 16% | 923 hPa | 0 mm | - | - | - |
* Rain latest hour (hover to see other rain measurements)
** Current wind speed in m/s (hover to see current wind gust speed)